Preview of NWS' New Version of Forecast
This preview is not operational and should not be used for support decisions.

Regional Weather Roundup (RWR)

Issued by National Weather Service (NWS)

                            
000
ASUS43 KDMX 211306
RWRIA 

WEATHER ROUNDUP FOR IOWA
NATIONAL WEATHER SERVICE DES MOINES IA
700 AM CST THU FEB 21 2019

NOTE: "FAIR" INDICATES FEW OR NO CLOUDS BELOW 12,000 FEET WITH NO
SIGNIFICANT WEATHER AND/OR OBSTRUCTIONS TO VISIBILITY.

* - THESE STATIONS ARE NOT NWS STATIONS...THUS NOT UNDER NWS
QUALITY CONTROL.  THEY ALSO DO NOT REPORT WEATHER SUCH 
AS PRECIPITATION OR FOG.  

IAZ001>003-012>014-020>022-031>034-043>046-211400-
   NORTHWEST IOWA
  
CITY           SKY/WX    TMP DP  RH WIND       PRES   REMARKS
CARROLL *      CLOUDY     5   3  92 CALM      30.09R                  
CHEROKEE *     CLOUDY    -3  -5  92 CALM      30.10R FOG              
DENISON *      CLOUDY     1   0  92 CALM      30.11R FOG              
LE MARS *      CLOUDY    -6  -9  84 CALM      30.09R FOG              
ORANGE CITY *  FLURRIES   3   1  92 NW5       30.05S WCI  -6          
SHELDON *      CLOUDY     0   0 100 W7        30.05R FOG     WCI -13  
SIOUX CITY     CLOUDY    -7  -8  96 SE3       30.11R FOG              
SPENCER        CLOUDY     2  -2  83 W12       30.06R WCI -15          
STORM LAKE *   CLOUDY     7   7 100 W7        30.06R WCI  -5          
$$
 
IAZ055>058-069>071-079>083-090>094-211400-
   SOUTHWEST IOWA
  
CITY           SKY/WX    TMP DP  RH WIND       PRES   REMARKS
ATLANTIC *     CLOUDY    -4  -6  92 CALM      30.13R FOG              
AUDUBON *      CLOUDY    -2  -8  78 CALM      30.12R FOG              
CLARINDA *     CLOUDY     0  -2  92 CALM      30.15S                  
COUNCIL BLFS * CLOUDY    10  10 100 SE6       30.11R FOG     WCI   1  
CRESTON *      CLOUDY    10   9  92 NW8       30.12R WCI  -1          
HARLAN  *      CLOUDY     0  -2  92 CALM      30.12R FOG              
LAMONI         PTCLDY    11   8  88 W8        30.11R WCI  -1          
RED OAK *      CLOUDY    -2  -4  92 NE5       30.13S WCI -12          
SHENANDOAH *   CLOUDY     1  -2  85 CALM      30.14R                  
$$
 
IAZ047>049-059>061-072>074-084-211400-
   CENTRAL IOWA
  
CITY           SKY/WX    TMP DP  RH WIND       PRES   REMARKS
AMES           CLOUDY     2  -1  88 SW8       30.10R FOG     WCI -12  
ANKENY *       CLOUDY    12  10  92 SW8       30.14R WCI   1          
BOONE *        CLOUDY    10   9  92 W7        30.08R FOG     WCI   0  
CHARITON *     CLOUDY    12  10  92 W6        30.12R WCI   3          
DES MOINES     CLOUDY    11   8  88 SW6       30.13R WCI   1          
GRINNELL*      CLOUDY    10   9  95 W6        30.12R FOG     WCI   0  
KNOXVILLE *    CLOUDY    14  14 100 W8        30.12R FOG     WCI   3  
MARSHALLTOWN   CLOUDY     8   6  92 W5        30.09R FOG     WCI   0  
NEWTON *       CLOUDY     9   9 100 W6        30.12R FOG     WCI  -1  
PELLA *        CLOUDY    13  10  88 W3        30.14R                  
PERRY *        FAIR       4   2  92 W9        30.11R FOG     WCI -11  
$$
 
IAZ004>006-015-016-023>025-035-036-211400-
   NORTH CENTRAL IOWA
  
CITY           SKY/WX    TMP DP  RH WIND       PRES   REMARKS
ALGONA *       CLOUDY     1   1 100 W10       30.05R WCI -14          
CLARION *      CLOUDY    -4  -8  84 CALM      30.09R FOG              
ESTHERVILLE    CLOUDY     0  -2  91 SW5       30.06R WCI -10          
FORT DODGE *   CLOUDY     2  -1  88 W3        30.09R                  
MASON CITY     CLOUDY     7   5  91 W15       30.06R WCI -10          
FOREST CITY *  FAIR       5   3  92 W5        30.06R WCI  -4          
IOWA FALLS *   FAIR       1  -2  85 W3        30.09R FOG              
$$

IAZ007>011-017>019-026>030-037>042-050>054-066-211400-
   NORTHEAST IOWA
  
CITY           SKY/WX    TMP DP  RH WIND       PRES   REMARKS
CEDAR RAPIDS   FAIR       8   7  95 W9        30.09R FOG     WCI  -5  
CHARLES CITY * FAIR       9   5  85 W12       30.07R WCI  -6          
CLINTON *      FAIR      13  10  88 W10       30.13R WCI   0          
DECORAH *      FAIR       9   9 100 VRB5      30.03R WCI   0          
DUBUQUE        FAIR       8   4  83 SW6       30.06R FOG     WCI  -2  
OELWEIN *      FAIR       3   3 100 W10       30.07R FOG     WCI -12  
WATERLOO       FAIR       9   6  88 W9        30.09R FOG     WCI  -4  
$$
 
IAZ064-065-067-068-078-211400-
   EAST CENTRAL IOWA
  
CITY           SKY/WX    TMP DP  RH WIND       PRES   REMARKS
DAVENPORT      FAIR      17  12  80 W9        30.14R WCI   6          
IOWA CITY      FAIR      10   8  92 SW3       30.16R FOG              
MT. PLEASANT * CLOUDY    19  18  93 W3        30.15R                  
MUSCATINE *    FAIR      19  16  86 NW3       30.17R                  
QUAD CITIES    FAIR      21  16  81 W5        30.13R WCI  15          
$$
 
IAZ062-063-075>077-085>089-095>099-211400-
   SOUTHEAST IOWA
  
CITY           SKY/WX    TMP DP  RH WIND       PRES   REMARKS
BURLINGTON     CLOUDY    22  16  78 NW6       30.13R WCI  14          
FAIRFIELD *    CLOUDY    16  12  86 W6        30.14R WCI   7          
FORT MADISON * CLOUDY    21  18  86 W5        30.15R WCI  15          
KEOKUK *       CLOUDY    23  18  80 CALM      30.15R                  
OSKALOOSA *    FAIR       9   7  92 W7        30.13R FOG     WCI  -2  
OTTUMWA        CLOUDY     8   5  87 SW3       30.13R FOG              
WASHINGTON *   CLOUDY    16  14  93 W6        30.16R FOG     WCI   7  
$$

ABBREVIATIONS USED IN REMARKS
   TC - TEMPERATURES IN CELSIUS
  WCI - WIND CHILL INDEX
   HX - HEAT INDEX
  VSB - VISIBILITY  
$$